Total_Precipitation_Accumulation
0.03 0.08 0.29 0.37 0.34 0.35 0.37 0.38 0.36 0.35 0.39 0.43 0.44 0.46 0.44 0.42 0.40 0.39 0.40 0.41 0.39 0.43 0.51 0.60 0.64 0.61 0.56 0.51 0.49 0.45 0.44 0.40 0.35 0.29 0.30 0.33 0.31 0.27 0.23 0.22 0.19 0.29 0.36
0.04 0.08 0.24 0.29 0.32 0.36 0.38 0.35 0.32 0.31 0.34 0.38 0.39 0.42 0.44 0.41 0.40 0.40 0.41 0.41 0.42 0.44 0.49 0.56 0.60 0.60 0.54 0.51 0.53 0.48 0.41 0.31 0.26 0.21 0.20 0.21 0.27 0.30 0.29 0.27 0.26 0.34 0.34
0.04 0.08 0.18 0.26 0.30 0.37 0.38 0.34 0.30 0.30 0.31 0.34 0.39 0.42 0.43 0.41 0.40 0.39 0.40 0.42 0.46 0.51 0.53 0.56 0.55 0.53 0.53 0.54 0.51 0.47 0.42 0.31 0.19 0.16 0.15 0.20 0.29 0.35 0.37 0.32 0.30 0.33 0.33
0.04 0.07 0.12 0.25 0.30 0.37 0.39 0.37 0.34 0.32 0.32 0.34 0.37 0.41 0.43 0.46 0.45 0.41 0.40 0.46 0.50 0.56 0.61 0.59 0.53 0.54 0.57 0.54 0.44 0.41 0.42 0.35 0.21 0.13 0.08 0.19 0.37 0.48 0.43 0.38 0.33 0.33 0.36
0.05 0.08 0.15 0.26 0.31 0.36 0.40 0.43 0.43 0.41 0.39 0.38 0.39 0.39 0.42 0.44 0.44 0.42 0.43 0.49 0.52 0.52 0.55 0.57 0.55 0.57 0.54 0.48 0.40 0.37 0.47 0.46 0.27 0.09 0.09 0.12 0.30 0.62 0.45 0.43 0.39 0.35 0.35
0.05 0.09 0.17 0.28 0.35 0.39 0.42 0.49 0.50 0.50 0.50 0.50 0.48 0.47 0.49 0.50 0.49 0.45 0.45 0.46 0.46 0.47 0.51 0.51 0.51 0.54 0.54 0.49 0.40 0.42 0.53 0.57 0.30 0.13 0.14 0.16 0.30 0.60 0.52 0.47 0.42 0.37 0.35
0.05 0.09 0.17 0.31 0.39 0.41 0.45 0.50 0.54 0.58 0.62 0.63 0.64 0.63 0.60 0.59 0.58 0.56 0.54 0.48 0.42 0.42 0.45 0.48 0.49 0.51 0.54 0.51 0.46 0.55 0.63 0.58 0.31 0.28 0.20 0.19 0.34 0.57 0.61 0.56 0.51 0.46 0.41
0.07 0.11 0.20 0.39 0.46 0.45 0.46 0.52 0.58 0.60 0.66 0.68 0.70 0.71 0.68 0.63 0.62 0.66 0.65 0.55 0.44 0.38 0.37 0.38 0.40 0.45 0.47 0.46 0.49 0.62 0.64 0.41 0.19 0.14 0.13 0.16 0.33 0.58 0.82 0.77 0.61 0.52 0.47
0.12 0.16 0.25 0.39 0.50 0.54 0.53 0.54 0.57 0.61 0.64 0.67 0.70 0.73 0.71 0.64 0.63 0.63 0.64 0.57 0.48 0.42 0.38 0.34 0.34 0.36 0.37 0.40 0.45 0.49 0.43 0.27 0.16 0.19 0.16 0.21 0.33 0.66 0.98 0.94 0.74 0.58 0.51
0.17 0.22 0.30 0.41 0.49 0.53 0.56 0.58 0.57 0.59 0.61 0.63 0.67 0.70 0.66 0.61 0.60 0.58 0.54 0.49 0.46 0.46 0.44 0.37 0.34 0.33 0.30 0.29 0.31 0.32 0.28 0.22 0.14 0.20 0.25 0.25 0.28 0.62 1.01 1.02 0.89 0.73 0.63
0.23 0.29 0.37 0.46 0.55 0.59 0.61 0.61 0.63 0.62 0.63 0.63 0.63 0.63 0.64 0.62 0.60 0.57 0.50 0.46 0.45 0.45 0.42 0.39 0.35 0.32 0.28 0.23 0.21 0.22 0.19 0.14 0.16 0.24 0.27 0.24 0.30 0.63 1.02 1.09 1.00 0.88 0.81
0.24 0.29 0.38 0.50 0.58 0.66 0.65 0.67 0.70 0.65 0.63 0.60 0.55 0.54 0.56 0.58 0.57 0.53 0.52 0.50 0.49 0.48 0.46 0.45 0.41 0.35 0.29 0.23 0.24 0.24 0.16 0.13 0.18 0.19 0.19 0.19 0.33 0.65 0.99 1.12 1.10 1.00 0.96
0.23 0.29 0.37 0.48 0.61 0.68 0.67 0.66 0.66 0.62 0.60 0.58 0.56 0.59 0.63 0.64 0.59 0.59 0.58 0.55 0.54 0.53 0.56 0.56 0.56 0.45 0.40 0.37 0.38 0.32 0.23 0.20 0.18 0.16 0.14 0.17 0.26 0.51 0.87 1.10 1.19 1.18 1.17
0.29 0.32 0.37 0.49 0.62 0.69 0.71 0.69 0.64 0.60 0.56 0.56 0.53 0.57 0.64 0.66 0.61 0.57 0.56 0.54 0.53 0.53 0.55 0.58 0.59 0.53 0.49 0.42 0.42 0.39 0.36 0.30 0.22 0.19 0.16 0.17 0.18 0.29 0.53 0.81 1.06 1.24 1.31
0.28 0.33 0.39 0.46 0.58 0.67 0.76 0.76 0.71 0.62 0.54 0.51 0.50 0.49 0.50 0.54 0.55 0.51 0.45 0.42 0.43 0.44 0.46 0.47 0.47 0.49 0.51 0.47 0.43 0.40 0.39 0.35 0.29 0.24 0.20 0.18 0.16 0.20 0.31 0.50 0.78 1.14 1.37
0.26 0.32 0.38 0.46 0.57 0.68 0.72 0.77 0.77 0.71 0.62 0.57 0.52 0.47 0.45 0.45 0.45 0.45 0.41 0.35 0.32 0.33 0.33 0.34 0.33 0.34 0.37 0.40 0.38 0.35 0.32 0.32 0.33 0.32 0.29 0.27 0.20 0.19 0.24 0.39 0.59 0.88 1.23
0.25 0.34 0.40 0.48 0.58 0.67 0.72 0.76 0.80 0.82 0.78 0.70 0.59 0.53 0.47 0.46 0.45 0.45 0.44 0.40 0.34 0.34 0.36 0.35 0.32 0.30 0.30 0.31 0.33 0.33 0.30 0.29 0.32 0.36 0.36 0.34 0.29 0.24 0.23 0.32 0.47 0.67 0.98
0.29 0.36 0.43 0.48 0.59 0.66 0.77 0.82 0.81 0.86 0.83 0.77 0.71 0.66 0.57 0.51 0.48 0.50 0.49 0.45 0.43 0.42 0.42 0.42 0.39 0.36 0.33 0.31 0.32 0.35 0.34 0.32 0.33 0.36 0.39 0.36 0.35 0.30 0.26 0.27 0.38 0.56 0.79
0.32 0.37 0.44 0.48 0.54 0.66 0.78 0.90 0.93 0.93 0.91 0.83 0.76 0.74 0.69 0.64 0.54 0.51 0.52 0.50 0.47 0.48 0.47 0.46 0.44 0.41 0.40 0.38 0.38 0.38 0.38 0.36 0.34 0.35 0.39 0.42 0.42 0.38 0.38 0.31 0.31 0.42 0.61
0.34 0.40 0.47 0.52 0.58 0.71 0.86 0.95 1.04 1.03 0.96 0.90 0.85 0.80 0.78 0.74 0.67 0.58 0.53 0.54 0.55 0.54 0.52 0.48 0.48 0.48 0.46 0.43 0.42 0.40 0.40 0.41 0.41 0.38 0.42 0.51 0.52 0.45 0.44 0.44 0.39 0.33 0.38
0.36 0.43 0.48 0.53 0.61 0.74 0.86 0.91 0.90 0.98 0.95 0.87 0.82 0.84 0.85 0.83 0.77 0.71 0.63 0.56 0.58 0.58 0.56 0.51 0.47 0.48 0.47 0.45 0.48 0.45 0.42 0.40 0.37 0.34 0.39 0.51 0.62 0.64 0.59 0.59 0.59 0.50 0.40
0.34 0.42 0.49 0.51 0.56 0.63 0.67 0.76 0.83 0.85 0.88 0.87 0.81 0.81 0.87 0.88 0.82 0.78 0.73 0.64 0.56 0.56 0.55 0.54 0.49 0.48 0.45 0.40 0.44 0.50 0.45 0.41 0.39 0.32 0.28 0.35 0.45 0.53 0.56 0.59 0.65 0.67 0.59
0.33 0.40 0.46 0.52 0.52 0.60 0.66 0.79 0.88 0.95 0.97 0.95 0.90 0.84 0.83 0.86 0.85 0.79 0.73 0.69 0.63 0.57 0.54 0.53 0.52 0.50 0.49 0.44 0.40 0.56 0.62 0.46 0.33 0.24 0.23 0.26 0.28 0.32 0.37 0.43 0.51 0.57 0.64
0.30 0.39 0.46 0.54 0.61 0.61 0.69 0.79 0.79 0.80 0.81 0.76 0.76 0.77 0.82 0.84 0.85 0.82 0.79 0.75 0.69 0.64 0.58 0.53 0.53 0.52 0.53 0.54 0.48 0.45 0.49 0.48 0.52 0.36 0.20 0.19 0.19 0.20 0.21 0.25 0.33 0.39 0.48
0.31 0.39 0.48 0.53 0.64 0.67 0.68 0.75 0.74 0.70 0.69 0.72 0.78 0.82 0.83 0.86 0.89 0.84 0.80 0.79 0.74 0.67 0.63 0.59 0.54 0.56 0.58 0.58 0.55 0.50 0.47 0.42 0.43 0.54 0.36 0.21 0.21 0.20 0.19 0.20 0.22 0.27 0.35
0.32 0.40 0.46 0.52 0.63 0.72 0.71 0.75 0.75 0.72 0.71 0.77 0.82 0.89 0.90 0.91 0.95 0.92 0.83 0.81 0.76 0.67 0.63 0.65 0.62 0.58 0.58 0.58 0.56 0.55 0.58 0.58 0.49 0.53 0.48 0.29 0.25 0.24 0.23 0.23 0.23 0.27 0.33